This is the latest recevied weather packets stored in our database for station/object K0QJ. If no packets are shown the sender has not sent any weather packets the latest 10 day(s).
| Time | Temp. | Humidity | Pressure | Rain* | Wind** | Luminosity | Snow |
|---|---|---|---|---|---|---|---|
| 1777836728 | 27.22° C | 38% | 1009.2 hPa | 0 mm | - | 632 W/m² | - |
| 1777836423 | 27.22° C | 40% | 1009.2 hPa | 0 mm | - | 628 W/m² | - |
| 1777836119 | 27.22° C | 39% | 1009.2 hPa | 0 mm | - | 617 W/m² | - |
| 1777835815 | 27.22° C | 40% | 1009.6 hPa | 0 mm | - | 609 W/m² | - |
| 1777835513 | 26.67° C | 40% | 1009.7 hPa | 0 mm | - | 661 W/m² | - |
| 1777835210 | 26.11° C | 41% | 1009.6 hPa | 0 mm | - | 675 W/m² | - |
| 1777834907 | 26.11° C | 41% | 1009.5 hPa | 0 mm | - | 725 W/m² | - |
| 1777834603 | 26.11° C | 40% | 1009.8 hPa | 0 mm | - | 733 W/m² | - |
| 1777834298 | 26.11° C | 40% | 1009.7 hPa | 0 mm | - | 730 W/m² | - |
| 1777833994 | 26.67° C | 39% | 1009.9 hPa | 0 mm | - | 727 W/m² | - |
| 1777833691 | 26.11° C | 40% | 1010 hPa | 0 mm | - | 729 W/m² | - |
| 1777833387 | 26.11° C | 41% | 1010.1 hPa | 0 mm | - | 721 W/m² | - |
| 1777833084 | 25.56° C | 41% | 1010.2 hPa | 0 mm | - | 734 W/m² | - |
| 1777832782 | 25.56° C | 41% | 1010.2 hPa | 0 mm | - | 756 W/m² | - |
| 1777832481 | 25.56° C | 41% | 1010.3 hPa | 0 mm | - | 741 W/m² | - |
| 1777832177 | 26.11° C | 41% | 1010.4 hPa | 0 mm | - | 753 W/m² | - |
| 1777831874 | 25.56° C | 43% | 1010.1 hPa | 0 mm | - | 740 W/m² | - |
| 1777831571 | 25° C | 42% | 1010.3 hPa | 0 mm | - | 758 W/m² | - |
| 1777831269 | 25° C | 43% | 1010.5 hPa | 0 mm | - | 791 W/m² | - |
| 1777830965 | 25° C | 42% | 1010.4 hPa | 0 mm | - | 804 W/m² | - |
| 1777830663 | 25° C | 42% | 1010.7 hPa | 0 mm | - | 789 W/m² | - |
| 1777830359 | 25° C | 43% | 1010.9 hPa | 0 mm | - | 756 W/m² | - |
| 1777830056 | 24.44° C | 44% | 1010.9 hPa | 0 mm | - | 769 W/m² | - |
| 1777829751 | 24.44° C | 44% | 1011 hPa | 0 mm | - | 790 W/m² | - |
| 1777829448 | 24.44° C | 44% | 1011.2 hPa | 0 mm | - | 842 W/m² | - |
* Rain latest hour (hover to see other rain measurements)
** Current wind speed in m/s (hover to see current wind gust speed)